Location: Katzenstein
(51.7484°N, 10.2155°E)
Time: 03:10:45
(UTC+00:00)

Cosmos 1356 Rocket - Pass Details

Date: 17 February 2020
Orbit: 543 x 598 km, 81.2° (Epoch: 09 April)

Event Time Altitude Azimuth Distance (km) Brightness Sun altitude
Exits shadow 03:58:21 47° 153° (SSE) 740 4.0 -24.1°
Maximum altitude 03:59:15 62° 98° (E) 630 3.7 -24.0°
Drops below altitude 10° 04:03:19 10° 19° (NNE) 1,869 6.4 -23.4°
Sets 04:05:33 0° 16° (NNE) 2,780 7.2 -23.1°
